This demonstration page uses our WeatherBlox Daily Observations layout. Learn more.

Hourly Observations for June 16, 2020

Temp ( °F °C ) Dew Point ( °F °C ) Humidity (%) Winds ( mph kmh ) Pressure ( in mb ) Visibility ( mi km ) Precip ( " mm )
12:15 am 00:15 Clear 75 24.1 50 10.2 42 42 SSE 13 20 29.94 1014 10 16.0934 0 0
12:35 am 00:35 Clear 76 24.2 51 10.5 42 42 SSE 14 22 29.94 1014 10 16.0934 0 0
12:55 am 00:55 Clear 75 24 52 10.9 44 44 SSE 17 28 29.94 1014 10 16.0934 0 0
1:15 am 01:15 Clear 74 23.6 52 11 45 45 SSE 15 24 29.95 1014 10 16.0934 0 0
1:35 am 01:35 Clear 74 23.4 52 11.2 46 46 SSE 20 31 29.94 1014 10 16.0934 0 0
1:55 am 01:55 Clear 73 23 52 11.2 47 47 SSE 16 26 29.94 1014 10 16.0934 0 0
2:15 am 02:15 Clear 73 22.6 53 11.6 50 50 SSE 16 26 29.95 1014 10 16.0934 0 0
2:35 am 02:35 Clear 72 22.3 54 12 52 52 SSE 14 22 29.95 1014 10 16.0934 0 0
2:55 am 02:55 Clear 72 22.1 55 12.5 55 55 SSE 16 26 29.95 1014 10 16.0934 0 0
3:15 am 03:15 Clear 71 21.7 55 12.6 56 56 SSE 15 24 29.95 1014 10 16.0934 0 0
3:35 am 03:35 Clear 71 21.6 55 13 58 58 SSE 15 24 29.94 1014 10 16.0934 0 0
3:55 am 03:55 Clear 71 21.4 56 13.4 60 60 SSE 13 20 29.95 1014 10 16.0934 0 0
4:15 am 04:15 Clear 69 20.7 56 13.5 64 64 SSE 13 20 29.95 1014 10 16.0934 0 0
4:35 am 04:35 Clear 69 20.6 57 13.8 65 65 SSE 12 19 29.95 1014 10 16.0934 0 0
4:55 am 04:55 Clear 69 20.5 57 14 66 66 SSE 13 20 29.95 1014 10 16.0934 0 0
5:15 am 05:15 Clear 68 20.2 58 14.2 69 69 SSE 13 20 29.96 1014 10 16.0934 0 0
5:35 am 05:35 Clear 68 20.1 58 14.6 71 71 SSE 14 22 29.96 1014 10 16.0934 0 0
5:55 am 05:55 Clear 68 20.1 59 14.8 72 72 SSE 13 20 29.96 1014 10 16.0934 0 0
6:15 am 06:15 Sunny 69 20.5 59 15.1 71 71 SSE 15 24 29.95 1014 10 16.0934 0 0
6:35 am 06:35 Sunny 69 20.6 60 15.3 72 72 SSE 16 26 29.95 1014 10 16.0934 0 0
6:55 am 06:55 Sunny 70 21 60 15.5 71 71 SSE 16 26 29.95 1014 10 16.0934 0 0
7:15 am 07:15 Sunny 71 21.5 60 15.6 69 69 SSE 18 30 29.94 1014 10 16.0934 0 0
7:35 am 07:35 Sunny 72 22 60 15.6 67 67 SSE 20 31 29.94 1014 10 16.0934 0 0
7:55 am 07:55 Sunny 73 22.6 60 15.6 65 65 S 21 33 29.94 1014 10 16.0934 0 0
8:15 am 08:15 Sunny 73 23 60 15.6 63 63 S 22 35 29.93 1014 10 16.0934 0 0
8:35 am 08:35 Sunny 75 23.7 60 15.7 61 61 S 22 35 29.93 1013 10 16.0934 0 0
8:55 am 08:55 Sunny 76 24.5 60 15.6 58 58 S 24 39 29.92 1013 10 16.0934 0 0
9:15 am 09:15 Sunny 77 25 60 15.6 56 56 S 21 33 29.92 1013 10 16.0934 0 0
9:35 am 09:35 Sunny 78 25.6 60 15.6 54 54 S 26 43 29.91 1013 10 16.0934 0 0
9:55 am 09:55 Sunny 79 26.2 60 15.8 53 53 S 23 37 29.91 1013 10 16.0934 0 0
10:15 am 10:15 Sunny 81 27 60 15.6 50 50 S 24 39 29.89 1012 10 16.0934 0 0
10:35 am 10:35 Sunny 82 27.6 60 15.6 48 48 S 24 39 29.88 1012 10 16.0934 0 0
10:55 am 10:55 Sunny 83 28.2 60 15.5 46 46 S 24 39 29.87 1012 10 16.0934 0 0
11:15 am 11:15 Sunny 84 29 60 15.4 44 44 S 24 39 29.87 1011 10 16.0934 0 0
11:35 am 11:35 Sunny 85 29.6 60 15.5 42 42 SSE 23 37 29.86 1011 10 16.0934 0 0
11:55 am 11:55 Sunny 87 30.5 60 15.4 40 40 S 25 41 29.85 1011 10 16.0934 0 0
12:15 pm 12:15 Sunny 87 30.8 58 14.6 37 37 S 23 37 29.84 1011 10 16.0934 0 0
12:35 pm 12:35 Sunny 89 31.5 58 14.7 36 36 S 24 39 29.84 1010 10 16.0934 0 0
12:55 pm 12:55 Sunny 89 31.8 58 14.7 35 35 S 23 37 29.82 1010 10 16.0934 0 0
1:15 pm 13:15 Sunny 89 31.9 58 14.6 35 35 SSE 24 39 29.82 1010 10 16.0934 0 0
1:35 pm 13:35 Sunny 90 32.2 58 14.4 34 34 S 30 48 29.81 1010 10 16.0934 0 0
1:55 pm 13:55 Sunny 91 32.8 57 13.9 32 32 S 28 44 29.81 1009 10 16.0934 0 0
2:15 pm 14:15 Partly Cloudy 91 33 57 13.7 31 31 S 24 39 29.79 1009 10 16.0934 0 0
2:35 pm 14:35 Partly Cloudy 91 33 56 13.4 30 30 S 25 41 29.79 1009 10 16.0934 0 0
2:55 pm 14:55 Partly Cloudy 92 33.2 55 13 29 29 S 26 43 29.78 1009 10 16.0934 0 0
3:15 pm 15:15 Partly Cloudy 92 33.1 54 12.1 28 28 S 30 48 29.78 1009 10 16.0934 0 0
3:35 pm 15:35 Sunny 91 33 53 11.7 27 27 SSE 22 35 29.77 1008 10 16.0934 0 0
3:55 pm 15:55 Sunny 92 33.1 55 12.5 28 28 S 23 37 29.76 1008 10 16.0934 0 0
4:15 pm 16:15 Sunny 92 33.1 52 11.3 26 26 S 21 33 29.75 1008 10 16.0934 0 0
4:35 pm 16:35 Sunny 91 33 54 12.1 28 28 S 24 39 29.75 1007 10 16.0934 0 0
4:55 pm 16:55 Sunny 91 33 53 11.7 27 27 SSE 25 41 29.74 1007 10 16.0934 0 0
5:15 pm 17:15 Sunny 91 32.9 53 11.7 27 27 S 26 43 29.74 1007 10 16.0934 0 0
5:35 pm 17:35 Sunny 91 32.8 53 11.6 27 27 S 23 37 29.73 1007 10 16.0934 0 0
5:55 pm 17:55 Sunny 91 33 54 12 28 28 SSE 28 44 29.73 1007 10 16.0934 0 0
6:15 pm 18:15 Sunny 91 32.5 54 12.1 29 29 SSE 25 41 29.72 1006 10 16.0934 0 0
6:35 pm 18:35 Sunny 90 32.2 55 12.5 30 30 SSE 25 41 29.72 1006 10 16.0934 0 0
6:55 pm 18:55 Sunny 90 32 55 12.6 31 31 SSE 25 41 29.71 1006 10 16.0934 0 0
7:15 pm 19:15 Sunny 89 31.7 54 12.3 30 30 SSE 22 35 29.72 1006 10 16.0934 0 0
7:35 pm 19:35 Sunny 89 31.5 54 12.4 31 31 SSE 21 33 29.72 1006 10 16.0934 0 0
7:55 pm 19:55 Sunny 88 31 55 12.5 32 32 SSE 20 31 29.73 1007 10 16.0934 0 0
8:15 pm 20:15 Sunny 86 30.2 54 12.3 33 33 SSE 21 33 29.74 1007 10 16.0934 0 0
8:35 pm 20:35 Sunny 85 29.4 54 12 34 34 SSE 17 28 29.74 1007 10 16.0934 0 0
8:55 pm 20:55 Sunny 83 28.6 53 11.7 35 35 SSE 16 26 29.75 1007 10 16.0934 0 0
9:15 pm 21:15 Clear 82 28 53 11.6 36 36 SSE 14 22 29.76 1008 10 16.0934 0 0
9:35 pm 21:35 Clear 81 27.2 53 11.8 38 38 SSE 14 22 29.77 1008 10 16.0934 0 0
9:55 pm 21:55 Clear 81 27 53 11.9 39 39 SSE 16 26 29.77 1008 10 16.0934 0 0
10:15 pm 22:15 Clear 80 26.8 53 11.6 39 39 SSE 15 24 29.78 1009 10 16.0934 0 0
10:35 pm 22:35 Clear 79 26 54 12 42 42 SE 15 24 29.79 1009 10 16.0934 0 0
10:55 pm 22:55 Clear 78 25.5 56 13.6 48 48 SSE 15 24 29.79 1009 10 16.0934 0 0
11:15 pm 23:15 Clear 77 25.2 58 14.5 52 52 SSE 17 28 29.8 1009 10 16.0934 0 0
11:35 pm 23:35 Clear 77 25.2 58 14.5 52 52 SSE 16 26 29.8 1009 10 16.0934 0 0
11:55 pm 23:55 Clear 77 25 58 14.6 53 53 SSE 18 30 29.8 1009 10 16.0934 0 0

Powered by AerisWeather